sat.trackr.live / text

‹ back to catalog

PRAETORIAN SDA_614

NORAD 65577 · 2025-203N

PAYLOAD ACTIVE UNKNOWN

§ Identity

Operator
Country
US
Launch date
2025-09-10
Launch site
AFWTR
Launch vehicle
Mass (kg)
RCS (m²)

Purposes: military

External: N2YO · Heavens-Above · Gunter

§ Orbital elements

Epoch: 2026-05-25T03:08:50.897760Z

Period
103.99 min
Inclination
81.3030°
Eccentricity
0.0006152
Mean motion
13.84775466 rev/d
Perigee alt
942.5 km
Apogee alt
951.5 km
Semi-major
7,325.1 km
B*
6.0025e-5
RAAN
31.9725°
Arg perigee
253.5240°
Mean anomaly
106.5242°
Rev number
3,552

§ Raw data

PRAETORIAN SDA_6141 65577U 25203N   26145.13114465  .00000079  00000+0  60025-4 0  99972 65577  81.3030  31.9725 0006152 253.5240 106.5242 13.84775466 35525

JSON: /api/v1/satellites/65577 · /tle

For live sub-satellite position, see the globe view (requires WebGL).

§ Visibility from observer

Set your observer location to see the next 7 days of passes ≥ 10°. The values pass through the URL so the page stays shareable.

No JS? Fill the form by hand. The geolocation button needs JavaScript.